{"data":{"norad_id":28935,"intl_designator":"2006-003A","name":"ECHOSTAR 10","alt_names":[],"object_type":"PAYLOAD","status":"ACTIVE","operator":null,"country":"US","launch_date":"2006-02-15","launch_site_code":"SEAL","launch_vehicle":null,"mission":null,"orbit_class":"UNKNOWN","rcs_meters":22.7066,"size_class":null,"mass_kg":null,"dimensions":null,"purposes":["comms"],"wikipedia_slug":null,"has_3d_model":false,"image_url":null,"decayed_at":null,"tle_current":{"epoch":"2026-09-19T21:34:47.303904Z","epoch_age_seconds":66360,"freshness":"FRESH","line1":"1 28935U 06003A   26262.89915861 -.00000060  00000+0  00000+0 0  9996","line2":"2 28935   0.0397 342.3769 0002667 145.4432  84.5084  1.00271241 75410","mean_motion":1.00271241,"eccentricity":0.0002667,"inclination_deg":0.0397,"raan_deg":342.3769,"arg_perigee_deg":145.4432,"mean_anomaly_deg":84.5084,"bstar":0,"rev_number":7541,"period_min":1436.1046952635,"perigee_km":35775.502090141,"apogee_km":35797.992839515,"semimajor_km":42164.884464828,"source":"CELESTRAK","updated_at":"2026-09-20T09:00:35.126203Z"}}}